Year,Month,Day,Hour,Minute,Value (Times are PST for temperature in C)
2019,04,01,00,00,11.20
2019,04,01,00,01,11.10
2019,04,01,00,02,11.10
2019,04,01,00,03,11.10
2019,04,01,00,04,11.10
2019,04,01,00,05,11.00
2019,04,01,00,06,10.30
2019,04,01,00,07,10.20
2019,04,01,00,08,10.10
2019,04,01,00,09,10.10
2019,04,01,00,10,10.00
2019,04,01,00,11,9.90
2019,04,01,00,12,9.90
2019,04,01,00,13,9.90
2019,04,01,00,14,9.80
2019,04,01,00,15,9.80
2019,04,01,00,16,9.80
2019,04,01,00,17,9.80
2019,04,01,00,18,9.80
2019,04,01,00,19,9.90
2019,04,01,00,20,9.90
2019,04,01,00,21,9.90
2019,04,01,00,22,9.90
2019,04,01,00,23,9.90
2019,04,01,00,24,9.90
2019,04,01,00,25,9.90
2019,04,01,00,26,9.90
2019,04,01,00,27,9.90
2019,04,01,00,28,9.80
2019,04,01,00,29,9.80
2019,04,01,00,30,9.80
2019,04,01,00,31,9.80
2019,04,01,00,32,9.70
2019,04,01,00,33,9.70
2019,04,01,00,34,9.60
2019,04,01,00,35,9.60
2019,04,01,00,36,9.60
2019,04,01,00,37,9.60
2019,04,01,00,38,9.60
2019,04,01,00,39,9.60
2019,04,01,00,40,9.60
2019,04,01,00,41,9.60
2019,04,01,00,42,9.60
2019,04,01,00,43,9.60
2019,04,01,00,44,9.60
2019,04,01,00,45,9.60
2019,04,01,00,46,9.70
2019,04,01,00,47,9.70
2019,04,01,00,48,9.70
2019,04,01,00,49,9.70
2019,04,01,00,50,9.70
2019,04,01,00,51,9.70
2019,04,01,00,52,9.70
2019,04,01,00,53,9.70
2019,04,01,00,54,9.60
2019,04,01,00,55,9.60
2019,04,01,00,56,9.60
2019,04,01,00,57,9.60
2019,04,01,00,58,9.60
2019,04,01,00,59,9.60
2019,04,01,01,00,9.60
2019,04,01,01,01,9.60
2019,04,01,01,02,9.60
2019,04,01,01,03,9.60
2019,04,01,01,04,9.60
2019,04,01,01,05,9.70
2019,04,01,01,06,9.70
2019,04,01,01,07,9.70
2019,04,01,01,08,9.70
2019,04,01,01,09,9.70
2019,04,01,01,10,9.70
2019,04,01,01,11,9.70
2019,04,01,01,12,9.70
2019,04,01,01,13,9.80
2019,04,01,01,14,9.80
2019,04,01,01,15,9.80
2019,04,01,01,16,9.80
2019,04,01,01,17,9.80
2019,04,01,01,18,9.90
2019,04,01,01,19,9.90
2019,04,01,01,20,9.90
2019,04,01,01,21,10.00
2019,04,01,01,22,10.10
2019,04,01,01,23,10.10
2019,04,01,01,24,10.20
2019,04,01,01,25,10.20
2019,04,01,01,26,10.20
2019,04,01,01,27,10.30
2019,04,01,01,28,10.30
2019,04,01,01,29,10.30
2019,04,01,01,30,10.30
2019,04,01,01,31,10.30
2019,04,01,01,32,10.30
2019,04,01,01,33,10.30
2019,04,01,01,34,10.30
2019,04,01,01,35,10.30
2019,04,01,01,36,10.30
2019,04,01,01,37,10.40
2019,04,01,01,38,10.40
2019,04,01,01,39,10.40
2019,04,01,01,40,10.50
2019,04,01,01,41,10.50
2019,04,01,01,42,10.60
2019,04,01,01,43,10.60
2019,04,01,01,44,10.60
2019,04,01,01,45,10.70
2019,04,01,01,46,10.70
2019,04,01,01,47,10.80
2019,04,01,01,48,10.80
2019,04,01,01,49,10.80
2019,04,01,01,50,10.80
2019,04,01,01,51,10.80
2019,04,01,01,52,10.80
2019,04,01,01,53,10.80
2019,04,01,01,54,10.70
2019,04,01,01,55,10.70
2019,04,01,01,56,10.70
2019,04,01,01,57,10.70
2019,04,01,01,58,10.70
2019,04,01,01,59,10.70
2019,04,01,02,00,10.70
2019,04,01,02,01,10.60
2019,04,01,02,02,10.60
2019,04,01,02,03,10.60
2019,04,01,02,04,10.50
2019,04,01,02,05,10.40
2019,04,01,02,06,10.40
2019,04,01,02,07,10.30
2019,04,01,02,08,10.30
2019,04,01,02,09,10.20
2019,04,01,02,10,10.20
2019,04,01,02,11,10.10
2019,04,01,02,12,10.10
2019,04,01,02,13,10.10
2019,04,01,02,14,10.10
2019,04,01,02,15,10.10
2019,04,01,02,16,10.10
2019,04,01,02,17,10.10
2019,04,01,02,18,10.10
2019,04,01,02,19,10.10
2019,04,01,02,20,10.10
2019,04,01,02,21,10.10
2019,04,01,02,22,10.10
2019,04,01,02,23,10.10
2019,04,01,02,24,10.10
2019,04,01,02,25,10.10
2019,04,01,02,26,10.00
2019,04,01,02,27,10.00
2019,04,01,02,28,10.00
2019,04,01,02,29,10.00
2019,04,01,02,30,10.00
2019,04,01,02,31,10.00
2019,04,01,02,32,10.10
2019,04,01,02,33,10.10
2019,04,01,02,34,10.10
2019,04,01,02,35,10.10
2019,04,01,02,36,10.10
2019,04,01,02,37,10.10
2019,04,01,02,38,10.10
2019,04,01,02,39,10.20
2019,04,01,02,40,10.20
2019,04,01,02,41,10.20
2019,04,01,02,42,10.20
2019,04,01,02,43,10.20
2019,04,01,02,44,10.20
2019,04,01,02,45,10.20
2019,04,01,02,46,10.20
2019,04,01,02,47,10.30
2019,04,01,02,48,10.30
2019,04,01,02,49,10.30
2019,04,01,02,50,10.30
2019,04,01,02,51,10.30
2019,04,01,02,52,10.30
2019,04,01,02,53,10.30
2019,04,01,02,54,10.30
2019,04,01,02,55,10.30
2019,04,01,02,56,10.30
2019,04,01,02,57,10.30
2019,04,01,02,58,10.20
2019,04,01,02,59,10.20
2019,04,01,03,00,10.20
2019,04,01,03,01,10.20
2019,04,01,03,02,10.20
2019,04,01,03,03,10.20
2019,04,01,03,04,10.20
2019,04,01,03,05,10.20
2019,04,01,03,06,10.20
2019,04,01,03,07,10.20
2019,04,01,03,08,10.20
2019,04,01,03,09,10.20
2019,04,01,03,10,10.20
2019,04,01,03,11,10.20
2019,04,01,03,12,10.10
2019,04,01,03,13,10.10
2019,04,01,03,14,10.00
2019,04,01,03,15,9.90
2019,04,01,03,16,9.90
2019,04,01,03,17,9.80
2019,04,01,03,18,9.80
2019,04,01,03,19,9.80
2019,04,01,03,20,9.80
2019,04,01,03,21,9.80
2019,04,01,03,22,9.90
2019,04,01,03,23,9.90
2019,04,01,03,24,9.90
2019,04,01,03,25,10.00
2019,04,01,03,26,10.00
2019,04,01,03,27,10.00
2019,04,01,03,28,10.10
2019,04,01,03,29,10.10
2019,04,01,03,30,10.10
2019,04,01,03,31,10.10
2019,04,01,03,32,10.10
2019,04,01,03,33,10.20
2019,04,01,03,34,10.20
2019,04,01,03,35,10.20
2019,04,01,03,36,10.20
2019,04,01,03,37,10.20
2019,04,01,03,38,10.10
2019,04,01,03,39,10.10
2019,04,01,03,40,10.10
2019,04,01,03,41,10.10
2019,04,01,03,42,10.10
2019,04,01,03,43,10.10
2019,04,01,03,44,10.00
2019,04,01,03,45,10.00
2019,04,01,03,46,9.90
2019,04,01,03,47,9.90
2019,04,01,03,48,9.90
2019,04,01,03,49,9.90
2019,04,01,03,50,9.90
2019,04,01,03,51,9.80
2019,04,01,03,52,9.80
2019,04,01,03,53,9.80
2019,04,01,03,54,9.70
2019,04,01,03,55,9.70
2019,04,01,03,56,9.60
2019,04,01,03,57,9.60
2019,04,01,03,58,9.50
2019,04,01,03,59,9.40
2019,04,01,04,00,9.40
2019,04,01,04,01,9.30
2019,04,01,04,02,9.30
2019,04,01,04,03,9.30
2019,04,01,04,04,9.20
2019,04,01,04,05,9.20
2019,04,01,04,06,9.20
2019,04,01,04,07,9.20
2019,04,01,04,08,9.10
2019,04,01,04,09,9.10
2019,04,01,04,10,9.00
2019,04,01,04,11,8.90
2019,04,01,04,12,8.90
2019,04,01,04,13,8.90
2019,04,01,04,14,8.90
2019,04,01,04,15,8.90
2019,04,01,04,16,8.90
2019,04,01,04,17,9.00
2019,04,01,04,18,9.00
2019,04,01,04,19,9.00
2019,04,01,04,20,9.00
2019,04,01,04,21,9.00
2019,04,01,04,22,9.10
2019,04,01,04,23,9.10
2019,04,01,04,24,9.10
2019,04,01,04,25,9.10
2019,04,01,04,26,9.10
2019,04,01,04,27,9.10
2019,04,01,04,28,9.10
2019,04,01,04,29,9.20
2019,04,01,04,30,9.20
2019,04,01,04,31,9.20
2019,04,01,04,32,9.20
2019,04,01,04,33,9.20
2019,04,01,04,34,9.20
2019,04,01,04,35,9.20
2019,04,01,04,36,9.20
2019,04,01,04,37,9.20
2019,04,01,04,38,9.20
2019,04,01,04,39,9.20
2019,04,01,04,40,9.20
2019,04,01,04,41,9.20
2019,04,01,04,42,9.20
2019,04,01,04,43,9.20
2019,04,01,04,44,9.20
2019,04,01,04,45,9.20
2019,04,01,04,46,9.20
2019,04,01,04,47,9.20
2019,04,01,04,48,9.20
2019,04,01,04,49,9.20
2019,04,01,04,50,9.20
2019,04,01,04,51,9.20
2019,04,01,04,52,9.20
2019,04,01,04,53,9.20
2019,04,01,04,54,9.20
2019,04,01,04,55,9.30
2019,04,01,04,56,9.30
2019,04,01,04,57,9.40
2019,04,01,04,58,9.40
2019,04,01,04,59,9.40
2019,04,01,05,00,9.40
2019,04,01,05,01,9.30
2019,04,01,05,02,9.30
2019,04,01,05,03,9.30
2019,04,01,05,04,9.20
2019,04,01,05,05,9.20
2019,04,01,05,06,9.20
2019,04,01,05,07,9.30
2019,04,01,05,08,9.30
2019,04,01,05,09,9.30
2019,04,01,05,10,9.30
2019,04,01,05,11,9.40
2019,04,01,05,12,9.40
2019,04,01,05,13,9.40
2019,04,01,05,14,9.40
2019,04,01,05,15,9.40
2019,04,01,05,16,9.40
2019,04,01,05,17,9.40
2019,04,01,05,18,9.40
2019,04,01,05,19,9.40
2019,04,01,05,20,9.40
2019,04,01,05,21,9.40
2019,04,01,05,22,9.40
2019,04,01,05,23,9.40
2019,04,01,05,24,9.40
2019,04,01,05,25,9.40
2019,04,01,05,26,9.40
2019,04,01,05,27,9.40
2019,04,01,05,28,9.30
2019,04,01,05,29,9.30
2019,04,01,05,30,9.30
2019,04,01,05,31,9.30
2019,04,01,05,32,9.30
2019,04,01,05,33,9.30
2019,04,01,05,34,9.20
2019,04,01,05,35,9.20
2019,04,01,05,36,9.20
2019,04,01,05,37,9.20
2019,04,01,05,38,9.20
2019,04,01,05,39,9.20
2019,04,01,05,40,9.10
2019,04,01,05,41,9.10
2019,04,01,05,42,9.10
2019,04,01,05,43,9.00
2019,04,01,05,44,9.00
2019,04,01,05,45,9.00
2019,04,01,05,46,8.90
2019,04,01,05,47,8.90
2019,04,01,05,48,8.80
2019,04,01,05,49,8.80
2019,04,01,05,50,8.70
2019,04,01,05,51,8.60
2019,04,01,05,52,8.50
2019,04,01,05,53,8.50
2019,04,01,05,54,8.40
2019,04,01,05,55,8.40
2019,04,01,05,56,8.40
2019,04,01,05,57,8.40
2019,04,01,05,58,8.50
2019,04,01,05,59,8.50
2019,04,01,06,00,8.60
2019,04,01,06,01,8.60
2019,04,01,06,02,8.70
2019,04,01,06,03,8.70
2019,04,01,06,04,8.70
2019,04,01,06,05,8.70
2019,04,01,06,06,8.70
2019,04,01,06,07,8.80
2019,04,01,06,08,8.80
2019,04,01,06,09,8.80
2019,04,01,06,10,8.90
2019,04,01,06,11,8.90
2019,04,01,06,12,8.90
2019,04,01,06,13,9.00
2019,04,01,06,14,9.00
2019,04,01,06,15,8.90
2019,04,01,06,16,8.90
2019,04,01,06,17,8.80
2019,04,01,06,18,8.80
2019,04,01,06,19,8.70
2019,04,01,06,20,8.70
2019,04,01,06,21,8.60
2019,04,01,06,22,8.60
2019,04,01,06,23,8.50
2019,04,01,06,24,8.50
2019,04,01,06,25,8.40
2019,04,01,06,26,8.40
2019,04,01,06,27,8.40
2019,04,01,06,28,8.40
2019,04,01,06,29,8.40
2019,04,01,06,30,8.40
2019,04,01,06,31,8.40
2019,04,01,06,32,8.40
2019,04,01,06,33,8.30
2019,04,01,06,34,8.30
2019,04,01,06,35,8.30
2019,04,01,06,36,8.30
2019,04,01,06,37,8.30
2019,04,01,06,38,8.40
2019,04,01,06,39,8.40
2019,04,01,06,40,8.40
2019,04,01,06,41,8.40
2019,04,01,06,42,8.30
2019,04,01,06,43,8.30
2019,04,01,06,44,8.30
2019,04,01,06,45,8.30
2019,04,01,06,46,8.30
2019,04,01,06,47,8.30
2019,04,01,06,48,8.30
2019,04,01,06,49,8.30
2019,04,01,06,50,8.30
2019,04,01,06,51,8.30
2019,04,01,06,52,8.20
2019,04,01,06,53,8.20
2019,04,01,06,54,8.20
2019,04,01,06,55,8.10
2019,04,01,06,56,8.10
2019,04,01,06,57,8.00
2019,04,01,06,58,7.90
2019,04,01,06,59,7.80
2019,04,01,07,00,7.70
2019,04,01,07,01,7.60
2019,04,01,07,02,7.60
2019,04,01,07,03,7.60
2019,04,01,07,04,7.60
2019,04,01,07,05,7.70
2019,04,01,07,06,7.80
2019,04,01,07,07,7.90
2019,04,01,07,08,7.90
2019,04,01,07,09,7.90
2019,04,01,07,10,7.90
2019,04,01,07,11,7.90
2019,04,01,07,12,7.90
2019,04,01,07,13,7.90
2019,04,01,07,14,7.90
2019,04,01,07,15,7.90
2019,04,01,07,16,7.90
2019,04,01,07,17,8.00
2019,04,01,07,18,8.00
2019,04,01,07,19,8.10
2019,04,01,07,20,8.10
2019,04,01,07,21,8.10
2019,04,01,07,22,8.10
2019,04,01,07,23,8.20
2019,04,01,07,24,8.20
2019,04,01,07,25,8.20
2019,04,01,07,26,8.30
2019,04,01,07,27,8.30
2019,04,01,07,28,8.40
2019,04,01,07,29,8.50
2019,04,01,07,30,8.50
2019,04,01,07,31,8.60
2019,04,01,07,32,8.60
2019,04,01,07,33,8.70
2019,04,01,07,34,8.80
2019,04,01,07,35,8.80
2019,04,01,07,36,8.80
2019,04,01,07,37,8.90
2019,04,01,07,38,8.90
2019,04,01,07,39,9.00
2019,04,01,07,40,9.10
2019,04,01,07,41,9.10
2019,04,01,07,42,9.20
2019,04,01,07,43,9.20
2019,04,01,07,44,9.20
2019,04,01,07,45,9.20
2019,04,01,07,46,9.20
2019,04,01,07,47,9.20
2019,04,01,07,48,9.20
2019,04,01,07,49,9.20
2019,04,01,07,50,9.20
2019,04,01,07,51,9.20
2019,04,01,07,52,9.20
2019,04,01,07,53,9.30
2019,04,01,07,54,9.30
2019,04,01,07,55,9.30
2019,04,01,07,56,9.30
2019,04,01,07,57,9.30
2019,04,01,07,58,9.30
2019,04,01,07,59,9.40
2019,04,01,08,00,9.40
2019,04,01,08,01,9.40
2019,04,01,08,02,9.40
2019,04,01,08,03,9.40
2019,04,01,08,04,9.30
2019,04,01,08,05,9.30
2019,04,01,08,06,9.30
2019,04,01,08,07,9.30
2019,04,01,08,08,9.30
2019,04,01,08,09,9.30
2019,04,01,08,10,9.30
2019,04,01,08,11,9.40
2019,04,01,08,12,9.40
2019,04,01,08,13,9.50
2019,04,01,08,14,9.60
2019,04,01,08,15,9.60
2019,04,01,08,16,9.60
2019,04,01,08,17,9.70
2019,04,01,08,18,9.70
2019,04,01,08,19,9.80
2019,04,01,08,20,9.80
2019,04,01,08,21,9.80
2019,04,01,08,22,9.90
2019,04,01,08,23,9.90
2019,04,01,08,24,9.90
2019,04,01,08,25,10.00
2019,04,01,08,26,10.00
2019,04,01,08,27,10.10
2019,04,01,08,28,10.10
2019,04,01,08,29,10.20
2019,04,01,08,30,10.20
2019,04,01,08,31,10.20
2019,04,01,08,32,10.30
2019,04,01,08,33,10.30
2019,04,01,08,34,10.30
2019,04,01,08,35,10.30
2019,04,01,08,36,10.30
2019,04,01,08,37,10.30
2019,04,01,08,38,10.30
2019,04,01,08,39,10.30
2019,04,01,08,40,10.30
2019,04,01,08,41,10.20
2019,04,01,08,42,10.20
2019,04,01,08,43,10.20
2019,04,01,08,44,10.20
2019,04,01,08,45,10.20
2019,04,01,08,46,10.20
2019,04,01,08,47,10.20
2019,04,01,08,48,10.30
2019,04,01,08,49,10.30
2019,04,01,08,50,10.30
2019,04,01,08,51,10.30
2019,04,01,08,52,10.40
2019,04,01,08,53,10.40
2019,04,01,08,54,10.50
2019,04,01,08,55,10.60
2019,04,01,08,56,10.70
2019,04,01,08,57,10.80
2019,04,01,08,58,10.90
2019,04,01,08,59,11.00
2019,04,01,09,00,11.00
2019,04,01,09,01,11.10
2019,04,01,09,02,11.20
2019,04,01,09,03,11.30
2019,04,01,09,04,11.40
2019,04,01,09,05,11.50
2019,04,01,09,06,11.50
2019,04,01,09,07,11.60
2019,04,01,09,08,11.70
2019,04,01,09,09,11.80
2019,04,01,09,10,11.90
2019,04,01,09,11,12.00
2019,04,01,09,12,12.00
2019,04,01,09,13,12.10
2019,04,01,09,14,12.10
2019,04,01,09,15,12.10
2019,04,01,09,16,12.20
2019,04,01,09,17,12.30
2019,04,01,09,18,12.30
2019,04,01,09,19,12.40
2019,04,01,09,20,12.50
2019,04,01,09,21,12.60
2019,04,01,09,22,12.70
2019,04,01,09,23,12.80
2019,04,01,09,24,12.90
2019,04,01,09,25,13.00
2019,04,01,09,26,13.10
2019,04,01,09,27,13.20
2019,04,01,09,28,13.30
2019,04,01,09,29,13.40
2019,04,01,09,30,13.40
2019,04,01,09,31,13.50
2019,04,01,09,32,13.60
2019,04,01,09,33,13.70
2019,04,01,09,34,13.70
2019,04,01,09,35,13.70
2019,04,01,09,36,13.70
2019,04,01,09,37,13.80
2019,04,01,09,38,13.80
2019,04,01,09,39,13.80
2019,04,01,09,40,13.80
2019,04,01,09,41,13.80
2019,04,01,09,42,13.80
2019,04,01,09,43,13.90
2019,04,01,09,44,14.00
2019,04,01,09,45,14.00
2019,04,01,09,46,14.00
2019,04,01,09,47,14.00
2019,04,01,09,48,14.00
2019,04,01,09,49,13.90
2019,04,01,09,50,13.90
2019,04,01,09,51,13.90
2019,04,01,09,52,13.80
2019,04,01,09,53,13.80
2019,04,01,09,54,13.80
2019,04,01,09,55,13.80
2019,04,01,09,56,13.80
2019,04,01,09,57,13.80
2019,04,01,09,58,13.70
2019,04,01,09,59,13.70
2019,04,01,10,00,13.70
2019,04,01,10,01,13.70
2019,04,01,10,02,13.70
2019,04,01,10,03,13.80
2019,04,01,10,04,13.80
2019,04,01,10,05,13.90
2019,04,01,10,06,13.90
2019,04,01,10,07,14.00
2019,04,01,10,08,14.00
2019,04,01,10,09,14.00
2019,04,01,10,10,14.00
2019,04,01,10,11,14.10
2019,04,01,10,12,14.10
2019,04,01,10,13,14.20
2019,04,01,10,14,14.20
2019,04,01,10,15,14.20
2019,04,01,10,16,14.30
2019,04,01,10,17,14.30
2019,04,01,10,18,14.40
2019,04,01,10,19,14.40
2019,04,01,10,20,14.40
2019,04,01,10,21,14.30
2019,04,01,10,22,14.30
2019,04,01,10,23,14.30
2019,04,01,10,24,14.40
2019,04,01,10,25,14.40
2019,04,01,10,26,14.50
2019,04,01,10,27,14.50
2019,04,01,10,28,14.60
2019,04,01,10,29,14.60
2019,04,01,10,30,14.70
2019,04,01,10,31,14.70
2019,04,01,10,32,14.70
2019,04,01,10,33,14.70
2019,04,01,10,34,14.80
2019,04,01,10,35,14.80
2019,04,01,10,36,14.80
2019,04,01,10,37,14.80
2019,04,01,10,38,14.80
2019,04,01,10,39,14.90
2019,04,01,10,40,15.00
2019,04,01,10,41,15.00
2019,04,01,10,42,15.00
2019,04,01,10,43,15.00
2019,04,01,10,44,15.00
2019,04,01,10,45,15.00
2019,04,01,10,46,15.10
2019,04,01,10,47,15.20
2019,04,01,10,48,15.20
2019,04,01,10,49,15.30
2019,04,01,10,50,15.40
2019,04,01,10,51,15.40
2019,04,01,10,52,15.40
2019,04,01,10,53,15.40
2019,04,01,10,54,15.40
2019,04,01,10,55,15.40
2019,04,01,10,56,15.30
2019,04,01,10,57,15.40
2019,04,01,10,58,15.40
2019,04,01,10,59,15.40
2019,04,01,11,00,15.40
2019,04,01,11,01,15.40
2019,04,01,11,02,15.50
2019,04,01,11,03,15.50
2019,04,01,11,04,15.50
2019,04,01,11,05,15.50
2019,04,01,11,06,15.60
2019,04,01,11,07,15.60
2019,04,01,11,08,15.70
2019,04,01,11,09,15.80
2019,04,01,11,10,15.80
2019,04,01,11,11,15.80
2019,04,01,11,12,15.80
2019,04,01,11,13,15.80
2019,04,01,11,14,15.70
2019,04,01,11,15,15.70
2019,04,01,11,16,15.80
2019,04,01,11,17,15.80
2019,04,01,11,18,15.80
2019,04,01,11,19,15.80
2019,04,01,11,20,15.70
2019,04,01,11,21,15.70
2019,04,01,11,22,15.70
2019,04,01,11,23,15.70
2019,04,01,11,24,15.70
2019,04,01,11,25,15.70
2019,04,01,11,26,15.80
2019,04,01,11,27,15.80
2019,04,01,11,28,15.80
2019,04,01,11,29,15.80
2019,04,01,11,30,15.90
2019,04,01,11,31,15.90
2019,04,01,11,32,15.90
2019,04,01,11,33,15.90
2019,04,01,11,34,15.90
2019,04,01,11,35,15.90
2019,04,01,11,36,15.90
2019,04,01,11,37,15.90
2019,04,01,11,38,15.90
2019,04,01,11,39,15.90
2019,04,01,11,40,16.00
2019,04,01,11,41,16.00
2019,04,01,11,42,16.10
2019,04,01,11,43,16.10
2019,04,01,11,44,16.10
2019,04,01,11,45,16.20
2019,04,01,11,46,16.30
2019,04,01,11,47,16.30
2019,04,01,11,48,16.40
2019,04,01,11,49,16.40
2019,04,01,11,50,16.40
2019,04,01,11,51,16.40
2019,04,01,11,52,16.40
2019,04,01,11,53,16.40
2019,04,01,11,54,16.40
2019,04,01,11,55,16.50
2019,04,01,11,56,16.50
2019,04,01,11,57,16.60
2019,04,01,11,58,16.70
2019,04,01,11,59,16.70
2019,04,01,12,00,16.70
2019,04,01,12,01,16.80
2019,04,01,12,02,16.80
2019,04,01,12,03,16.80
2019,04,01,12,04,16.80
2019,04,01,12,05,16.90
2019,04,01,12,06,17.00
2019,04,01,12,07,17.00
2019,04,01,12,08,17.10
2019,04,01,12,09,17.20
2019,04,01,12,10,17.30
2019,04,01,12,11,17.40
2019,04,01,12,12,17.50
2019,04,01,12,13,17.60
2019,04,01,12,14,17.60
2019,04,01,12,15,17.60
2019,04,01,12,16,17.70
2019,04,01,12,17,17.70
2019,04,01,12,18,17.70
2019,04,01,12,19,17.70
2019,04,01,12,20,17.70
2019,04,01,12,21,17.80
2019,04,01,12,22,17.90
2019,04,01,12,23,17.90
2019,04,01,12,24,18.00
2019,04,01,12,25,18.00
2019,04,01,12,26,18.10
2019,04,01,12,27,18.10
2019,04,01,12,28,18.00
2019,04,01,12,29,18.00
2019,04,01,12,30,18.00
2019,04,01,12,31,17.90
2019,04,01,12,32,17.90
2019,04,01,12,33,17.80
2019,04,01,12,34,17.80
2019,04,01,12,35,17.80
2019,04,01,12,36,17.80
2019,04,01,12,37,17.90
2019,04,01,12,38,17.90
2019,04,01,12,39,17.90
2019,04,01,12,40,18.00
2019,04,01,12,41,18.10
2019,04,01,12,42,18.10
2019,04,01,12,43,18.10
2019,04,01,12,44,18.20
2019,04,01,12,45,18.20
2019,04,01,12,46,18.20
2019,04,01,12,47,18.20
2019,04,01,12,48,18.30
2019,04,01,12,49,18.30
2019,04,01,12,50,18.40
2019,04,01,12,51,18.40
2019,04,01,12,52,18.30
2019,04,01,12,53,18.40
2019,04,01,12,54,18.40
2019,04,01,12,55,18.40
2019,04,01,12,56,18.40
2019,04,01,12,57,18.40
2019,04,01,12,58,18.20
2019,04,01,12,59,18.10
2019,04,01,13,00,18.10
2019,04,01,13,01,18.00
2019,04,01,13,02,18.00
2019,04,01,13,03,17.80
2019,04,01,13,04,17.70
2019,04,01,13,05,17.70
2019,04,01,13,06,17.70
2019,04,01,13,07,17.70
2019,04,01,13,08,17.80
2019,04,01,13,09,17.70
2019,04,01,13,10,17.70
2019,04,01,13,11,17.90
2019,04,01,13,12,18.00
2019,04,01,13,13,18.10
2019,04,01,13,14,18.20
2019,04,01,13,15,18.20
2019,04,01,13,16,18.20
2019,04,01,13,17,18.20
2019,04,01,13,18,18.20
2019,04,01,13,19,18.20
2019,04,01,13,20,18.30
2019,04,01,13,21,18.30
2019,04,01,13,22,18.30
2019,04,01,13,23,18.30
2019,04,01,13,24,18.30
2019,04,01,13,25,18.30
2019,04,01,13,26,18.30
2019,04,01,13,27,18.30
2019,04,01,13,28,18.20
2019,04,01,13,29,18.20
2019,04,01,13,30,18.20
2019,04,01,13,31,18.10
2019,04,01,13,32,18.10
2019,04,01,13,33,18.20
2019,04,01,13,34,18.20
2019,04,01,13,35,18.30
2019,04,01,13,36,18.30
2019,04,01,13,37,18.30
2019,04,01,13,38,18.10
2019,04,01,13,39,18.00
2019,04,01,13,40,17.90
2019,04,01,13,41,17.80
2019,04,01,13,42,17.70
2019,04,01,13,43,17.70
2019,04,01,13,44,17.70
2019,04,01,13,45,17.70
2019,04,01,13,46,17.70
2019,04,01,13,47,17.80
2019,04,01,13,48,17.90
2019,04,01,13,49,18.00
2019,04,01,13,50,18.10
2019,04,01,13,51,18.20
2019,04,01,13,52,18.20
2019,04,01,13,53,18.30
2019,04,01,13,54,18.40
2019,04,01,13,55,18.50
2019,04,01,13,56,18.60
2019,04,01,13,57,18.50
2019,04,01,13,58,18.30
2019,04,01,13,59,18.20
2019,04,01,14,00,18.00
2019,04,01,14,01,17.80
2019,04,01,14,02,17.80
2019,04,01,14,03,17.80
2019,04,01,14,04,17.80
2019,04,01,14,05,17.90
2019,04,01,14,06,18.00
2019,04,01,14,07,18.10
2019,04,01,14,08,18.20
2019,04,01,14,09,18.30
2019,04,01,14,10,18.30
2019,04,01,14,11,18.30
2019,04,01,14,12,18.30
2019,04,01,14,13,18.40
2019,04,01,14,14,18.50
2019,04,01,14,15,18.60
2019,04,01,14,16,18.70
2019,04,01,14,17,18.70
2019,04,01,14,18,18.70
2019,04,01,14,19,18.70
2019,04,01,14,20,18.70
2019,04,01,14,21,18.70
2019,04,01,14,22,18.80
2019,04,01,14,23,18.90
2019,04,01,14,24,19.00
2019,04,01,14,25,19.10
2019,04,01,14,26,19.20
2019,04,01,14,27,19.20
2019,04,01,14,28,19.10
2019,04,01,14,29,19.00
2019,04,01,14,30,18.90
2019,04,01,14,31,18.80
2019,04,01,14,32,18.70
2019,04,01,14,33,18.60
2019,04,01,14,34,18.60
2019,04,01,14,35,18.60
2019,04,01,14,36,18.60
2019,04,01,14,37,18.50
2019,04,01,14,38,18.40
2019,04,01,14,39,18.40
2019,04,01,14,40,18.40
2019,04,01,14,41,18.50
2019,04,01,14,42,18.50
2019,04,01,14,43,18.40
2019,04,01,14,44,18.40
2019,04,01,14,45,18.50
2019,04,01,14,46,18.60
2019,04,01,14,47,18.70
2019,04,01,14,48,18.80
2019,04,01,14,49,18.90
2019,04,01,14,50,18.90
2019,04,01,14,51,19.00
2019,04,01,14,52,19.00
2019,04,01,14,53,19.00
2019,04,01,14,54,19.00
2019,04,01,14,55,18.90
2019,04,01,14,56,18.70
2019,04,01,14,57,18.60
2019,04,01,14,58,18.50
2019,04,01,14,59,18.40
2019,04,01,15,00,18.50
2019,04,01,15,01,18.60
2019,04,01,15,02,18.70
2019,04,01,15,03,18.80
2019,04,01,15,04,18.90
2019,04,01,15,05,19.00
2019,04,01,15,06,19.10
2019,04,01,15,07,19.10
2019,04,01,15,08,19.10
2019,04,01,15,09,19.20
2019,04,01,15,10,19.10
2019,04,01,15,11,19.10
2019,04,01,15,12,19.20
2019,04,01,15,13,19.20
2019,04,01,15,14,19.20
2019,04,01,15,15,19.10
2019,04,01,15,16,19.20
2019,04,01,15,17,19.20
2019,04,01,15,18,19.30
2019,04,01,15,19,19.30
2019,04,01,15,20,19.20
2019,04,01,15,21,19.20
2019,04,01,15,22,19.00
2019,04,01,15,23,18.90
2019,04,01,15,24,18.90
2019,04,01,15,25,18.90
2019,04,01,15,26,19.00
2019,04,01,15,27,19.10
2019,04,01,15,28,19.20
2019,04,01,15,29,19.20
2019,04,01,15,30,19.20
2019,04,01,15,31,19.20
2019,04,01,15,32,19.20
2019,04,01,15,33,19.10
2019,04,01,15,34,19.10
2019,04,01,15,35,19.00
2019,04,01,15,36,19.00
2019,04,01,15,37,18.90
2019,04,01,15,38,18.90
2019,04,01,15,39,18.80
2019,04,01,15,40,18.90
2019,04,01,15,41,18.90
2019,04,01,15,42,18.90
2019,04,01,15,43,19.00
2019,04,01,15,44,19.00
2019,04,01,15,45,19.00
2019,04,01,15,46,19.00
2019,04,01,15,47,18.90
2019,04,01,15,48,18.90
2019,04,01,15,49,18.90
2019,04,01,15,50,19.00
2019,04,01,15,51,19.00
2019,04,01,15,52,18.90
2019,04,01,15,53,18.90
2019,04,01,15,54,18.80
2019,04,01,15,55,18.70
2019,04,01,15,56,18.70
2019,04,01,15,57,18.70
2019,04,01,15,58,18.60
2019,04,01,15,59,18.50
2019,04,01,16,00,18.40
2019,04,01,16,01,18.40
2019,04,01,16,02,18.40
2019,04,01,16,03,18.40
2019,04,01,16,04,18.40
2019,04,01,16,05,18.30
2019,04,01,16,06,18.30
2019,04,01,16,07,18.30
2019,04,01,16,08,18.30
2019,04,01,16,09,18.30
2019,04,01,16,10,18.30
2019,04,01,16,11,18.30
2019,04,01,16,12,18.30
2019,04,01,16,13,18.40
2019,04,01,16,14,18.40
2019,04,01,16,15,18.50
2019,04,01,16,16,18.60
2019,04,01,16,17,18.70
2019,04,01,16,18,18.80
2019,04,01,16,19,18.80
2019,04,01,16,20,18.80
2019,04,01,16,21,18.80
2019,04,01,16,22,18.80
2019,04,01,16,23,18.80
2019,04,01,16,24,18.80
2019,04,01,16,25,18.80
2019,04,01,16,26,18.90
2019,04,01,16,27,19.00
2019,04,01,16,28,19.00
2019,04,01,16,29,19.10
2019,04,01,16,30,19.20
2019,04,01,16,31,19.30
2019,04,01,16,32,19.30
2019,04,01,16,33,19.30
2019,04,01,16,34,19.30
2019,04,01,16,35,19.30
2019,04,01,16,36,19.20
2019,04,01,16,37,19.20
2019,04,01,16,38,19.10
2019,04,01,16,39,19.10
2019,04,01,16,40,19.10
2019,04,01,16,41,19.10
2019,04,01,16,42,19.10
2019,04,01,16,43,19.10
2019,04,01,16,44,19.00
2019,04,01,16,45,18.90
2019,04,01,16,46,18.90
2019,04,01,16,47,18.90
2019,04,01,16,48,18.90
2019,04,01,16,49,19.00
2019,04,01,16,50,19.00
2019,04,01,16,51,19.00
2019,04,01,16,52,19.00
2019,04,01,16,53,19.00
2019,04,01,16,54,19.00
2019,04,01,16,55,19.10
2019,04,01,16,56,19.20
2019,04,01,16,57,19.20
2019,04,01,16,58,19.20
2019,04,01,16,59,19.10
2019,04,01,17,00,19.10
2019,04,01,17,01,19.00
2019,04,01,17,02,19.00
2019,04,01,17,03,19.00
2019,04,01,17,04,19.00
2019,04,01,17,05,18.90
2019,04,01,17,06,18.90
2019,04,01,17,07,18.90
2019,04,01,17,08,19.00
2019,04,01,17,09,19.10
2019,04,01,17,10,19.10
2019,04,01,17,11,19.20
2019,04,01,17,12,19.30
2019,04,01,17,13,19.30
2019,04,01,17,14,19.30
2019,04,01,17,15,19.30
2019,04,01,17,16,19.30
2019,04,01,17,17,19.20
2019,04,01,17,18,19.20
2019,04,01,17,19,19.10
2019,04,01,17,20,19.10
2019,04,01,17,21,19.10
2019,04,01,17,22,19.20
2019,04,01,17,23,19.20
2019,04,01,17,24,19.20
2019,04,01,17,25,19.30
2019,04,01,17,26,19.30
2019,04,01,17,27,19.30
2019,04,01,17,28,19.30
2019,04,01,17,29,19.30
2019,04,01,17,30,19.20
2019,04,01,17,31,19.20
2019,04,01,17,32,19.10
2019,04,01,17,33,19.10
2019,04,01,17,34,19.10
2019,04,01,17,35,19.10